Location: Unspecified
(0.0000°N, 0.0000°E)
Time: 05:23:18
(UTC+00:00)

METEOR M2 - Pass Details

Date: 12 July 2020
Orbit: 818 x 828 km, 98.5° (Epoch: 13 August)

Event Time Altitude Azimuth Distance (km) Brightness Sun altitude
Exits shadow 19:50:49 61° 128° (SE) 935 ? -24.2°
Maximum altitude 19:51:35 70° 78° (ENE) 875 ? -24.4°
Drops below altitude 10° 19:56:56 10° 354° (N) 2,421 ? -25.6°
Sets 19:59:17 0° 352° (N) 3,351 ? -26.2°
